Weather in Podberez'e

Russia / Novgorod Oblast     58°42′03″N   31°24′04″E
temp.,
°C
wind,
m/s
gust,
m/s
humid.,
%
clouds,
%
prec.,
mm/h
press.,
hPa
HPBL,
m
3 march, wed
wed300:00−1wnw411896 0.1 1018425
03:00−1wnw4119214 0.1 1019422
06:00−2w4119425 0.0 1017408
09:00−1wnw5108755 0.0 1017607
12:00+1w5982100 0.0 1015713
15:00+3w51172100 0.0 10121262
18:00+2w41277100 0.0 1009918
21:00+2w51393100 0.0 1005896
4 march, thu
thu400:00+2wnw61293100 0.3 1003995
03:00−1nw4118299 0.4 1004717
06:00−3wnw410810 0.0 1003539
09:00−3nw38830 0.0 1004481
12:00−1nw35680 0.0 1003788
15:000nw356425 0.0 10031181
18:00−2nw3779100 0.2 1003533
21:00−4nnw488699 0.5 1004718
5 march, fri
fri500:00−5nw4880100 0.1 1005753
03:00−6nw378696 0.1 1007613
06:00−6nw3782100 0.1 1008809
09:00−7nw3680100 0.1 1009738
12:00−6nw3574100 0.1 1010747
15:00−5nw3570100 0.1 1012901
18:00−6nnw3679100 0.1 1013747
21:00−8n277785 0.1 1016523
6 march, sat
sat600:00−9nw137838 0.0 1017131
03:00−9w249127 0.0 1018141
06:00−9w269124 0.0 1017238
09:00−8w268740 0.0 1017296
12:00−5wsw35700 0.0 1016736
15:00−3wsw586144 0.0 10131343
18:00−3sw51266100 0.0 10081260
21:00−3sw71592100 1.5 10021338
7 march, sun
sun700:00−2wsw81693100 1.8 9961288
03:000wsw71484100 2.8 992966
06:00−6wnw71862100 2.9 9921740
09:00−8wsw498967 3.1 993680
12:00−5wnw61359100 0.9 9912177
15:00−7w61183100 1.2 9921329
18:00−5nnw61083100 1.4 9941140
21:00−9nnw4118480 1.4 998661